Regional Weather Roundup
Issued by NWS

Home | Current Version | Previous Version | Text Only | Print | Product List | Glossary On
Versions: 1 2 3 4 5 6 7 8 9 10 11 12 13 14 15 16 17 18 19 20 21 22 23 24 25 26 27 28 29 30 31 32 33 34 35 36 37 38 39 40 41 42 43 44 45 46 47 48 49 50
000
ASUS43 KMPX 212110
RWRMN
WEATHER ROUNDUP FOR MINNESOTA
NATIONAL WEATHER SERVICE TWIN CITIES/CHANHASSEN MN
400 PM CDT MON AUG 21 2017


NOTE: "FAIR" INDICATES FEW OR NO CLOUDS BELOW 12,000 FEET WITH NO
SIGNIFICANT WEATHER AND/OR OBSTRUCTIONS TO VISIBILITY. N/A MEANS
CURRENT SKY AND/OR WEATHER CONDITIONS ARE NOT AVAILABLE.

MNZ060>063-068>070-212200-
   Twin Cities Metro

CITY           SKY/WX    TMP DP  RH WIND       PRES   REMARKS
TWIN CITIES    CLOUDY    72  66  81 S12G25    29.87R
ST PAUL        CLOUDY    71  69  93 SE9G28    29.85R
CRYSTAL        CLOUDY    72  65  78 S10       29.88R
BLAINE         CLOUDY    73  66  78 S3        29.88S
LAKEVILLE      LGT RAIN  68  68 100 S20G26    29.86F
EDEN PRAIRIE   LGT RAIN  72  68  87 SW15G23   29.90R
SOUTH ST PAUL  CLOUDY    69  69 100 SE16G28   29.82F
LAKE ELMO      FAIR      72  68  88 S15G30    29.88F
$$
MNZ001>005-007-008-013>017-022>024-027-028-212200-
   Northwest Minnesota

CITY           SKY/WX    TMP DP  RH WIND       PRES   REMARKS
BEMIDJI        CLOUDY    66  54  63 CALM      29.90F
HALLOCK        CLOUDY    66  57  72 CALM      29.89S
ROSEAU         CLOUDY    66  59  77 E3        29.89S
WARROAD        PTSUNNY   66  61  82 NE3       29.90F
THIEF RVR FALL CLOUDY    70  52  52 SW3       29.89F
CROOKSTON      LGT RAIN  70  55  60 SW3       29.87F
FOSSTON        CLOUDY    72  54  53 CALM      29.90F
DETROIT LAKES  CLOUDY    72  61  68 W6        29.90F
MOORHEAD       CLOUDY    72  61  68 NW8       29.87F
PARK RAPIDS    CLOUDY    71  58  63 SW3       29.89S
MAHNOMEN       CLOUDY    73  59  61 SW6       29.88F
$$
MNZ006-009>011-018-025>026-212200-
   North Central Minnesota

CITY           SKY/WX    TMP DP  RH WIND       PRES   REMARKS
BAUDETTE       CLOUDY    69  53  56 NE6       29.90F
FLAG ISLAND    DRIZZLE   64  52  63 CALM      29.89F
INTL FALLS     LGT RAIN  63  60  90 SW3       29.92S
WASKISH        CLOUDY    63  59  88 CALM      29.93S
BIG FORK       CLOUDY    66  55  68 CALM      29.92S
LONGVILLE      CLOUDY    70  57  64 CALM      29.89S
GRAND RAPIDS   CLOUDY    69  58  67 VRB3      29.92F
CRANE LAKE     CLOUDY    64  57  77 CALM      29.93F
ORR            CLOUDY    63  55  77 CALM      29.91R
COOK           CLOUDY    64  57  77 CALM      29.94R
WALKER         CLOUDY    65  56  72 CALM      29.91R
$$
MNZ012-019>021-037-212200-
   Northeast Minnesota

CITY           SKY/WX    TMP DP  RH WIND       PRES   REMARKS
DULUTH         CLOUDY    65  57  75 SE12      29.91F
ELY            CLOUDY    63  57  82 S5        29.93R
HIBBING        CLOUDY    66  56  70 E3        29.91S
EVELETH        CLOUDY    65  56  71 CALM      29.93S
DULUTH HARBOR  CLOUDY    70  63  78 E6        29.90F
TWO HARBORS    LGT RAIN  64  61  88 SE3       29.91S
SILVER BAY     CLOUDY    64  55  72 NE5       29.90F
GRAND MARAIS     N/A     65  56  72 CALM      29.92F
G MARAIS ARPRT CLOUDY    61  54  77 CALM      29.97F
$$
MNZ029>031-032-039>041-046>048-054>057-064-212200-
   West Central Minnesota

CITY           SKY/WX    TMP DP  RH WIND       PRES   REMARKS
FERGUS FALLS   CLOUDY    70  63  78 SW8       29.88S
WHEATON        CLOUDY    72  63  73 W8G16     29.89F
MORRIS         CLOUDY    68  64  88 SW5       29.88F
ALEXANDRIA     CLOUDY    68  63  84 SW8       29.91F
ELBOW LAKE     PTSUNNY   67  64  88 W7        29.89S FOG
WADENA         CLOUDY    70  61  73 SW9       29.89S
GLENWOOD       CLOUDY    68  63  83 SW5       29.91F
APPLETON       CLOUDY    66  63  88 CALM      29.88F
BENSON         CLOUDY    68  63  83 CALM      29.91F
ORTONVILLE     CLOUDY    66  63  88 MISG      29.88F
MADISON        CLOUDY    68  68 100 NW3       29.88F
WILLMAR        FAIR      66  66 100 N5        29.90F
$$
MNZ033>034-036-042>043-049>051-058-059-212200-
   Central Minnesota

CITY           SKY/WX    TMP DP  RH WIND       PRES   REMARKS
ST CLOUD       CLOUDY    68  66  93 S5        29.92R
SAUK CENTRE    CLOUDY    67  63  86 SW7       29.93S
PAYNESVILLE    CLOUDY    66  65  94 W5        29.93F
AITKIN         CLOUDY    73  59  60 S8        29.89R
PINE RIVER     CLOUDY    70  55  60 SE5       29.92S
BRAINERD       CLOUDY    72  61  68 S10       29.90R
STAPLES        CLOUDY    70  61  73 S6        29.90R
LONG PRAIRIE   CLOUDY    68  63  83 S9        29.92S
LITTLE FALLS   CLOUDY    70  61  73 SE6       29.91S
LITCHFIELD     CLOUDY    70  68  94 CALM      29.92F
BUFFALO        CLOUDY    71  65  82 S7        29.93R
MAPLE LAKE     CLOUDY    71  68  90 SW7       29.93R
HUTCHINSON     CLOUDY    70  67  92 S5        29.93F
$$
MNZ037-044-045-052-053-212200-
   East Central Minnesota

CITY           SKY/WX    TMP DP  RH WIND       PRES   REMARKS
PRINCETON      CLOUDY    72  66  83 CALM      29.92R
MORA           CLOUDY    70  63  78 CALM      29.92R
CAMBRIDGE      CLOUDY    73  66  78 CALM      29.90R
RUSH CITY      CLOUDY    71  65  82 CALM      29.91R
MOOSE LAKE     CLOUDY    72  59  64 SE3       29.89S
HINCKLEY       FAIR      72  64  78 S6        29.91R
CLOQUET          N/A     68  55  64 E6        29.91F
MCGREGOR       CLOUDY    72  55  56 SE10      29.90S
$$
MNZ071>073-080-081-089-090-097-098-212200-
   Southwest Minnesota

CITY           SKY/WX    TMP DP  RH WIND       PRES   REMARKS
MONTEVIDEO     CLOUDY    64  64 100 E5        29.86F
GRANITE FALLS  LGT RAIN  68  66  92 E8        29.86F
CANBY          CLOUDY    66  64  93 NW5       29.90S
MARSHALL       LGT RAIN  68  64  88 SE12G22   29.81F
REDWOOD FALLS  LGT RAIN  68  64  87 S16       29.88F
OLIVIA         DRIZZLE   68  64  88 SE6       29.90F
PIPESTONE      CLOUDY    66  64  94 SE14G24   29.83F
WINDOM         TSTM      66  63  88 S12G17    29.98S
WORTHINGTON    TSTM      65  64  97 SE14      29.97F
JACKSON        TSTM      64  64 100 S14       30.04R
TRACY          CLOUDY    67  67  98 S21G28    29.86F
SLAYTON        CLOUDY    65  61  89 S13       29.96F
$$
MNZ065>067-074>077-082>085-091>093-212200-
   South Central Minnesota

CITY           SKY/WX    TMP DP  RH WIND       PRES   REMARKS
MANKATO        RAIN      68  66  93 SW5       29.98R
NEW ULM        TSTM      66  64  94 S9        29.95R
ST JAMES       TSTM      66  64  94 S8        30.01R
FAIRMONT       LGT RAIN  67  65  93 SW7       30.03S
GLENCOE        LGT RAIN  68  68  99 S6        29.92R
FARIBAULT      RAIN      66  66 100 CALM      29.95F
OWATONNA       RAIN      68  66  94 SE10      29.96F
WASECA         LGT RAIN  66  64  94 SE10      29.97F
ALBERT LEA     HVY RAIN  70  68  94 CALM      30.03F
$$
MNZ078>079-086>088-094>096-212200-
   Southeast Minnesota

CITY           SKY/WX    TMP DP  RH WIND       PRES   REMARKS
ROCHESTER      RAIN      69  68  96 W7        30.02R FOG
RED WING       HVY RAIN  73  70  88 CALM      29.96F
STANTON        TSTM      67  65  91 SE7       29.94F
DODGE CENTER   TSTM      66  64  94 S6        30.01F
WINONA         CLOUDY    73  63  68 SW6       29.97R
AUSTIN         RAIN      68  64  88 W5        30.03R
PRESTON        LGT RAIN  69  64  84 W3        30.02R
$$
ABBREVIATIONS USED IN REMARKS
   TC - TEMPERATURES IN CELSIUS
  WCI - WIND CHILL INDEX
   HX - HEAT INDEX
  VSB - VISIBILITY
$$




USA.gov is the U.S. government's official web portal to all federal, state and local government web resources and services.